CAPE
2391 1794 1265 1513 2281 1022 2560 1291 3519 2610 2217 2072 1970 1930 2168 1978 1538 2477 1710 2067 3120 2492
2870 2569 1800 2470 1889 1518 1698 1512 1744 1854 1967 1982 2042 2142 2306 2037 2013 2221 2039 2202 2153 2075
2182 2402 2225 1538 1835 1656 1871 1266 1075 2001 2088 2038 1993 2000 2372 2935 2782 2012 1965 1346 3374 3042
2068 2120 2309 2009 1796 1818 1618 1711 1748 2711 2080 2436 2322 2383 2845 3275 2325 2346 2269 2612 2182 2803
1873 2029 1947 2200 2013 2244 2248 1791 2101 1966 2271 2211 2301 2887 2788 2234 1710 1885 2040 1990 2333 2103
1949 1902 1867 2126 2048 2248 2209 2270 1505 2070 2946 2137 2234 2833 2635 2670 2603 2093 2205 2162 2572 2300
1859 1965 1959 2462 2249 1905 2649 2371 2179 2407 2891 2760 2378 2260 2256 2588 2910 3014 2648 2658 2689 2596
1753 1811 1793 1862 1980 1834 2690 2618 2447 2644 2534 2715 1970 1756 2819 2769 2720 3230 2857 3371 3101 3096
1407 1761 2281 2110 1908 1967 1802 2746 3401 2879 2729 2617 1247 530 703 1828 2565 3092 3122 3102 3387 3814
636 811 1038 1674 2430 2670 2787 2417 3190 3334 3014 3187 3091 1177 194 563 1545 2483 3183 3448 3387 3319
443 615 768 941 1657 2391 2439 2446 3021 2691 3305 3465 3046 1711 1046 287 1561 2052 2549 2905 3579 3618
142 209 261 780 807 1034 2151 2722 2293 2487 2768 3214 3314 1967 1397 1040 1307 1198 1899 2368 2672 3012
52 75 119 120 182 416 615 1774 2695 2271 2534 2235 2991 2272 1797 1377 1366 1745 1511 2117 2244 1254
0 0 52 78 145 267 320 308 1438 2229 2877 2637 2279 2636 1687 1504 1860 1558 1607 1627 1614 1677
CIN
-0 -0 -0 -1 -7 -14 -10 -1 -3 -0 -0 -0 -0 -0 -0 -0 -0 -0 -1 -1 -1 -2
-0 -0 -0 -0 -2 -0 -9 -34 -5 -0 -0 -0 -0 -0 -0 -0 -0 -0 -0 -0 -3 -10
-0 -0 -2 -0 -0 -0 -0 -1 -123 -5 -0 -0 -0 -0 -0 -0 -0 -0 -0 -0 -0 -0
-1 -1 -1 -0 -0 -0 -6 -4 -0 -0 -2 -0 -0 -0 -0 -0 -0 -0 -0 -2 -0 -0
-0 -0 -0 -0 -0 -0 -0 -2 -0 -0 -0 -0 -0 -0 -0 -0 -0 -0 -0 -0 -0 -0
-0 -0 -0 -0 -2 -0 -0 -0 -3 -0 -0 -0 -0 -0 -0 -0 -0 -0 -0 -0 -0 -0
-0 -0 -0 -0 -0 -0 -0 -0 -1 -0 -0 -0 -0 -0 -0 -0 -0 -0 -0 -0 -0 -0
-2 -0 -0 -0 -7 -8 -0 -0 -0 -0 -0 -0 -0 -0 -0 -0 -0 -0 -0 -0 -0 -0
-20 -28 -7 -0 -7 -6 -22 -0 -0 -0 -0 -0 -5 -21 -10 -9 -0 -0 -1 -0 -0 -0
-12 -2 -3 -6 -3 -0 -0 -0 -0 -0 -0 -0 -0 -30 -89 -50 -2 -0 -0 -0 -0 -0
-45 -35 -23 -11 -0 -1 -2 -3 -0 -0 -0 -0 -0 -23 -45 -84 -23 -1 -0 -0 -0 -0
-73 -53 -56 -14 -8 -12 -0 -0 -3 -0 -0 -0 -0 -6 -34 -58 -33 -27 -10 -3 -1 -0
-19 -25 -72 -83 -60 -21 -8 -0 -0 -0 -0 -1 -0 -0 -9 -26 -19 -2 -8 -1 -11 -61
-0 -0 -8 -20 -73 -52 -40 -48 -0 -0 -0 -0 -0 -0 -2 -8 -2 -12 -6 -1 -0 -1
Wind_Speed
5 6 7 8 13 10 14 10 9 2 4 2 3 6 5 4 5 1 3 7 8 11
7 6 9 10 9 8 10 7 9 7 1 2 1 2 1 7 2 5 3 2 5 6
8 9 8 11 11 14 16 11 16 5 6 1 1 1 2 3 4 4 3 4 6 3
12 11 10 10 10 10 10 13 14 12 10 2 1 2 1 8 8 5 4 8 8 5
16 14 13 12 10 10 11 10 10 9 8 4 1 1 1 1 4 2 3 5 6 5
17 17 14 16 14 12 12 11 10 10 12 7 4 3 2 0 1 3 1 2 4 5
19 17 19 19 17 16 16 13 12 12 13 12 10 5 3 3 1 2 3 0 1 3
26 23 20 23 23 18 17 17 14 14 13 13 11 12 12 6 5 5 2 3 2 2
38 33 29 22 21 24 22 18 19 16 15 14 13 14 17 15 12 8 7 4 3 3
40 38 38 33 30 24 23 24 23 19 18 17 16 16 18 20 15 13 12 8 9 4
46 44 41 38 34 27 28 27 24 23 22 20 20 22 20 22 19 16 13 13 13 10
48 44 46 41 40 37 31 28 29 28 25 25 23 25 25 28 21 18 15 17 15 14
nan nan 43 38 42 39 39 34 30 25 25 28 26 29 31 33 28 22 21 22 19 18
nan nan nan nan 42 43 41 39 37 33 28 24 25 27 34 34 32 28 26 26 25 24
Wind_Direction
239 227 222 223 192 182 193 185 272 242 290 180 146 127 141 141 131 246 163 154 159 159
242 213 215 214 228 191 241 219 179 270 298 313 228 126 171 138 161 209 165 248 162 155
245 247 229 222 207 189 193 209 244 209 275 222 336 222 200 150 237 205 213 153 290 181
248 253 248 237 229 216 201 199 207 204 215 212 0 326 127 154 224 243 193 175 189 267
240 250 261 254 237 235 228 222 217 238 243 209 144 13 298 66 128 247 224 201 211 203
249 247 248 261 262 246 241 239 239 250 262 236 230 236 263 125 120 131 347 199 241 238
257 239 244 248 247 264 256 245 248 241 246 271 274 271 267 287 307 179 149 306 159 209
244 253 237 234 246 236 247 262 252 249 250 250 252 263 287 259 261 280 266 167 287 319
229 227 235 252 250 248 247 237 256 258 250 252 249 259 266 267 266 253 276 270 260 249
222 229 230 226 234 243 252 250 244 251 251 248 248 241 259 272 258 250 271 270 275 267
224 221 219 223 224 237 245 245 248 248 248 245 246 255 260 262 256 249 245 242 262 271
242 231 225 221 223 222 232 238 243 244 244 247 244 250 263 264 254 254 250 252 258 253
nan nan 242 229 218 225 229 232 240 238 250 248 245 254 262 264 252 247 253 261 265 268
nan nan nan nan 235 235 236 243 238 239 237 234 245 251 268 269 257 250 245 249 252 262